Location: Glenbow
(51.1592°N, 114.3828°W)
Time: 20:07:00
(UTC+00:00)

Envisat - Pass Details

Date: 08 December 2021
Orbit: 764 x 766 km, 98.2° (Epoch: 26 January)

Event Time Altitude Azimuth Distance (km) Brightness Sun altitude
Rises 11:23:00 0° 26° (NNE) 3,246 6.7 -37.2°
Reaches altitude 10° 11:26:05 10° 46° (NE) 2,314 6.0 -36.7°
Maximum altitude 11:29:29 18° 88° (E) 1,827 5.6 -36.2°
Drops below altitude 10° 11:32:52 10° 130° (SE) 2,301 5.9 -35.7°
Sets 11:35:55 0° 149° (SSE) 3,221 6.5 -35.2°
